[[{"header":{"parameterUnit":"m.s-1","parameterCategory":2,"la1":30.2991,"la2":30.254,"lo1":-89.0895,"lo2":-89.0444,"dy":0.0017,"dx":0.0017,"nx":28,"ny":28,"refTime":"2023-08-07T03:00:00:Z","depth":"0","parameterNumber":2,"parameterNumberName":"U-component_of_CURRENTS"},"data":[0,0,0,0,0,0,0,0,0,0,0,0,0,0,0,0,0,0,0,0,0,0,0,0,0,0,0,0,0,0,0,0,0,0,0,0,0,0,0,0,0,0,0,0,0,0,0,0,0,0,0,0,0,0,0,0,0,0,0.2578,0.2578,0,0.2608,0.2608,0.2608,0.2603,0.2603,0.2602,0.2602,0.2575,0.2574,0.2574,0,0,0,0,0,0,0,0,0,0,0,0,0,0.2427,0.243,0.2578,0.2578,0.2579,0.2608,0.2608,0.2609,0.2603,0.2603,0.2602,0.2602,0.2575,0.2574,0.2574,0,0,0,0,0,0,0,0,0,0,0,0,0,0.2477,0.2431,0.2578,0.2581,0.2582,0.2608,0.2608,0.2609,0.2603,0.2603,0.2602,0.2602,0.2575,0.2574,0.2574,0.2582,0,0,0.2572,0.2572,0,0,0,0,0,0,0,0,0.2474,0.2482,0.258,0.2581,0.2582,0.2603,0.2545,0.2597,0.2604,0.2594,0.2602,0.2601,0.258,0.2579,0.2585,0.2581,0.2579,0.2572,0.2572,0.2571,0.2571,0,0,0,0,0,0,0,0.2471,0.248,0.2588,0.2581,0.2582,0.255,0.2558,0.2555,0.2587,0.2594,0.2594,0.26,0.258,0.2585,0.2584,0.2579,0.2572,0.2572,0.2571,0.2571,0.2654,0.2656,0,0,0,0,0,0,0.2476,0.2478,0.2587,0.2589,0.2527,0.2554,0.2562,0.2595,0.2589,0.2588,0.2601,0.26,0.2586,0.2584,0.2583,0.2621,0.2571,0.2571,0.2571,0.2651,0.2654,0.2657,0,0,0,0,0,0,0.2473,0.2487,0.2586,0.2533,0.2544,0.2558,0.2595,0.2596,0.2605,0.2595,0.2592,0.2608,0.2586,0.2583,0.259,0.2619,0.2571,0.257,0.2648,0.2652,0.2656,0.268,0,0,0,0,0,0,0.2469,0.2486,0.2506,0.2535,0.2547,0.2603,0.2596,0.2597,0.261,0.2609,0.26,0.2597,0.2585,0.2591,0.2589,0.2617,0.257,0.2645,0.265,0.2654,0.2676,0.2684,0.2691,0,0,0,0,0,0.2464,0.2509,0.2508,0.252,0.2578,0.2604,0.2607,0.2612,0.2611,0.2617,0.2617,0.2598,0.2621,0.2591,0.2589,0.2618,0.2643,0.2648,0.2654,0.2672,0.2682,0.269,0,0,0,0,0,0,0.2442,0.2514,0.2513,0.2572,0.2581,0.2603,0.2613,0.2617,0.2624,0.2619,0.261,0.2608,0.2632,0.2628,0.2596,0.2664,0.2637,0.2642,0.2652,0.2661,0.2668,0.2669,0.2569,0,0,0,0,0,0.2449,0.2513,0.2539,0.2582,0.2586,0.2597,0.2607,0.2609,0.2621,0.2624,0.2623,0.2634,0.2657,0.2657,0.267,0.2689,0.2712,0.2718,0.2725,0.2731,0.2736,0.2798,0.2811,0.2676,0.2676,0.2675,0,0,0.2452,0.2499,0.2531,0.2582,0.2588,0.2598,0.2602,0.2619,0.2632,0.2619,0.2637,0.2654,0.267,0.27,0.2712,0.2695,0.2788,0.2739,0.2743,0.2744,0.2805,0.2818,0.283,0.2679,0.2679,0.2678,0,0,0.2472,0.2524,0.2562,0.2572,0.259,0.2606,0.2612,0.2631,0.2642,0.2659,0.2672,0.2705,0.2719,0.2748,0.2762,0.2822,0.2828,0.2837,0.2864,0.2925,0.2936,0.2946,0.3006,0.3021,0.2837,0.2837,0.2837,0,0.2455,0.2517,0.2567,0.2581,0.259,0.261,0.2613,0.2636,0.2657,0.2676,0.2666,0.2735,0.2746,0.2804,0.2834,0.2836,0.2873,0.2819,0.2932,0.2943,0.2952,0.3011,0.3027,0.2839,0.2839,0.2838,0.2838,0,0.2497,0.2518,0.2536,0.2575,0.2592,0.2604,0.2632,0.2654,0.2673,0.2698,0.2753,0.2779,0.2819,0.2846,0.2854,0.2942,0.2947,0.2933,0.2899,0.2967,0.3026,0.3042,0.2841,0.2841,0.284,0.284,0,0,0.2525,0.2556,0.2561,0.2548,0.2587,0.2602,0.2638,0.2679,0.2707,0.2743,0.2787,0.2852,0.2874,0.2897,0.2924,0.2984,0.3092,0.2992,0.2994,0.3035,0.3237,0.3224,0.324,0.3096,0.3099,0.3101,0.3255,0,0.2523,0.2543,0.2572,0.257,0.2568,0.2596,0.2628,0.2672,0.2717,0.2769,0.2827,0.288,0.2892,0.292,0.2983,0.3068,0.3135,0.3052,0.3181,0.3185,0.3151,0.3259,0.313,0.3254,0.327,0.3273,0.3275,0,0.2551,0.256,0.2559,0.2552,0.2555,0.2567,0.2624,0.2654,0.2742,0.2777,0.2845,0.2892,0.2999,0.2988,0.3159,0.3107,0.3179,0.3238,0.3244,0.3232,0.3202,0.319,0.3283,0.3188,0.33,0.3298,0.3296,0,0.2557,0.2548,0.2549,0.2549,0.2558,0.2565,0.2586,0.2661,0.2685,0.2796,0.2822,0.2948,0.3,0.312,0.3237,0.3214,0.3416,0.3391,0.3446,0.3446,0.3361,0.3349,0.3359,0.3511,0.3511,0.351,0.351,0,0.2563,0.2554,0.2543,0.2542,0.2523,0.2554,0.2567,0.2609,0.2681,0.2724,0.2823,0.2887,0.3036,0.3155,0.3266,0.3415,0.344,0.3482,0.3496,0.3369,0.3356,0.3288,0.3204,0.3516,0.3515,0.3514,0.3513,0,0.2565,0.2565,0.2538,0.2532,0.2517,0.2513,0.251,0.2529,0.2612,0.2672,0.2707,0.286,0.3041,0.3177,0.3386,0.3438,0.3504,0.3626,0.347,0.3463,0.3418,0.334,0.3316,0.3244,0.3731,0.3732,0.3733,0,0.2556,0.2546,0.2515,0.2468,0.2452,0.2437,0.2419,0.2486,0.2518,0.2664,0.2696,0.2877,0.3009,0.3296,0.3453,0.3646,0.3532,0.3608,0.3539,0.3426,0.335,0.3245,0.3177,0.3447,0.3446,0.3444,0.3443,0,0.2491,0.2493,0.2472,0.2393,0.2346,0.2319,0.2318,0.2335,0.2444,0.2521,0.2677,0.2804,0.3075,0.3235,0.3453,0.3557,0.3427,0.3585,0.3505,0.317,0.3018,0.295,0.3337,0.343,0.3432,0.3433,0.3433,0.3434,0.2407,0.2376,0.2328,0.2259,0.2213,0.2192,0.2184,0.2233,0.2297,0.2413,0.2599,0.273,0.2964,0.328,0.3368,0.3394,0.3391,0.3333,0.3267,0.3189,0.3048,0.3416,0.3495,0.3497,0.3498,0.3499,0.3501,0,0.2248,0.2223,0.2164,0.2089,0.2041,0.2061,0.2089,0.2109,0.2185,0.23,0.2445,0.2623,0.2782,0.2953,0.3103,0.3066,0.2986,0.3,0.2794,0.2761,0.3131,0.3045,0.2983,0.2983,0.2983,0.2983,0.2983,0.2983,0.2133,0.2042,0.2042,0.1913,0.1888,0.1855,0.1883,0.1943,0.2015,0.209,0.2155,0.2286,0.2523,0.271,0.273,0.2708,0.2553,0.2485,0.2498,0.271,0.2734,0.2758,0.2661,0.2519,0.2518,0.2064,0.2059,0.2056]},{"header":{"parameterUnit":"m.s-1","parameterCategory":2,"la1":30.2991,"la2":30.254,"lo1":-89.0895,"lo2":-89.0444,"dy":0.0017,"dx":0.0017,"nx":28,"ny":28,"refTime":"2023-08-07T03:00:00:Z","depth":"0","parameterNumber":3,"parameterNumberName":"V-component_of_CURRENTS"},"data":[0,0,0,0,0,0,0,0,0,0,0,0,0,0,0,0,0,0,0,0,0,0,0,0,0,0,0,0,0,0,0,0,0,0,0,0,0,0,0,0,0,0,0,0,0,0,0,0,0,0,0,0,0,0,0,0,0,0,-0.038,-0.038,0,-0.0397,-0.0398,-0.0398,-0.0453,-0.0454,-0.0454,-0.0455,-0.0508,-0.0508,-0.0509,0,0,0,0,0,0,0,0,0,0,0,0,0,-0.0366,-0.0366,-0.038,-0.038,-0.0379,-0.0397,-0.0398,-0.0399,-0.0453,-0.0454,-0.0455,-0.0455,-0.0507,-0.0508,-0.0509,0,0,0,0,0,0,0,0,0,0,0,0,0,-0.0381,-0.0367,-0.038,-0.0405,-0.0407,-0.0397,-0.0398,-0.0399,-0.0453,-0.0454,-0.0455,-0.0456,-0.0507,-0.0508,-0.0509,-0.0493,0,0,-0.0512,-0.0513,0,0,0,0,0,0,0,0,-0.038,-0.0382,-0.0401,-0.0403,-0.0405,-0.042,-0.0412,-0.043,-0.0452,-0.044,-0.0455,-0.0456,-0.0477,-0.0481,-0.0488,-0.0496,-0.0498,-0.0513,-0.0513,-0.0514,-0.0514,0,0,0,0,0,0,0,-0.0379,-0.0382,-0.0392,-0.0401,-0.0403,-0.0405,-0.041,-0.0416,-0.0457,-0.0442,-0.0444,-0.0438,-0.048,-0.0487,-0.049,-0.0499,-0.0513,-0.0513,-0.0514,-0.0515,-0.05,-0.0499,0,0,0,0,0,0,-0.0367,-0.0381,-0.0391,-0.0392,-0.039,-0.0404,-0.0409,-0.0418,-0.0456,-0.0461,-0.0437,-0.044,-0.0485,-0.0489,-0.0492,-0.0477,-0.0514,-0.0515,-0.0515,-0.0501,-0.05,-0.0499,0,0,0,0,0,0,-0.0367,-0.0369,-0.039,-0.0382,-0.0384,-0.0403,-0.0412,-0.0418,-0.0422,-0.0451,-0.0459,-0.0435,-0.0486,-0.0491,-0.0505,-0.048,-0.0515,-0.0516,-0.0502,-0.0501,-0.0499,-0.0447,0,0,0,0,0,0,-0.0367,-0.0369,-0.0372,-0.0381,-0.0384,-0.0381,-0.0411,-0.0417,-0.0414,-0.0419,-0.0452,-0.0459,-0.0487,-0.0504,-0.0506,-0.0482,-0.0517,-0.0504,-0.0502,-0.05,-0.045,-0.0444,-0.0439,0,0,0,0,0,-0.0367,-0.0361,-0.0373,-0.0373,-0.0388,-0.038,-0.0382,-0.0402,-0.0413,-0.0411,-0.0441,-0.0457,-0.0493,-0.0504,-0.0507,-0.0483,-0.0505,-0.0502,-0.05,-0.0452,-0.0445,-0.0439,0,0,0,0,0,0,-0.0357,-0.0366,-0.0379,-0.0378,-0.0377,-0.0387,-0.0384,-0.0391,-0.0412,-0.042,-0.0452,-0.0461,-0.0466,-0.0477,-0.0488,-0.0472,-0.0497,-0.0495,-0.046,-0.0453,-0.0447,-0.0426,-0.0518,0,0,0,0,0,-0.0354,-0.0352,-0.0361,-0.0356,-0.0358,-0.0368,-0.0366,-0.0377,-0.0391,-0.0402,-0.0423,-0.0442,-0.0457,-0.0459,-0.0479,-0.0465,-0.0481,-0.0448,-0.0443,-0.0438,-0.0421,-0.0444,-0.0439,-0.0491,-0.0491,-0.0491,0,0,-0.0342,-0.0349,-0.0345,-0.0352,-0.0358,-0.0348,-0.0372,-0.0364,-0.0354,-0.0402,-0.0402,-0.0429,-0.0452,-0.0451,-0.0451,-0.0456,-0.0429,-0.0435,-0.0431,-0.0417,-0.0441,-0.0436,-0.0432,-0.049,-0.049,-0.049,0,0,-0.0312,-0.0331,-0.0319,-0.0318,-0.0319,-0.0327,-0.0319,-0.0327,-0.0334,-0.0334,-0.0368,-0.0377,-0.0394,-0.0405,-0.0412,-0.0378,-0.0407,-0.0381,-0.0324,-0.0346,-0.0342,-0.0339,-0.0346,-0.0344,-0.0367,-0.0367,-0.0367,0,-0.03,-0.029,-0.0311,-0.0299,-0.0286,-0.0312,-0.0288,-0.0297,-0.0307,-0.0296,-0.0328,-0.0341,-0.0368,-0.0351,-0.0348,-0.0364,-0.0382,-0.0351,-0.0339,-0.0337,-0.0334,-0.0342,-0.034,-0.0364,-0.0365,-0.0365,-0.0365,0,-0.0266,-0.0253,-0.0243,-0.0241,-0.0234,-0.0214,-0.0225,-0.0221,-0.0232,-0.0233,-0.0226,-0.0269,-0.0271,-0.0279,-0.0307,-0.0288,-0.0308,-0.0341,-0.0358,-0.0326,-0.0336,-0.0335,-0.036,-0.0361,-0.0362,-0.0363,0,0,-0.027,-0.0222,-0.0227,-0.0196,-0.0197,-0.0182,-0.0167,-0.0146,-0.0119,-0.0144,-0.011,-0.0142,-0.0163,-0.0171,-0.0204,-0.0218,-0.0223,-0.0266,-0.0268,-0.0273,-0.0264,-0.0263,-0.0262,-0.0264,-0.0263,-0.0263,-0.0276,0,-0.024,-0.018,-0.0178,-0.0123,-0.0089,-0.0097,-0.0073,-0.0061,-0.006,-0.0042,-0.0071,-0.0064,-0.0122,-0.0123,-0.0148,-0.0206,-0.0219,-0.0216,-0.0293,-0.0294,-0.0299,-0.0261,-0.0212,-0.0218,-0.0275,-0.0275,-0.0275,0,-0.0228,-0.0183,-0.0107,-0.0036,-0.0026,-0.0003,0.0042,0.0063,0.0078,0.0079,0.0077,0.0043,0.003,-0.0037,-0.0107,-0.0106,-0.0175,-0.0224,-0.0227,-0.0241,-0.0291,-0.0261,-0.0215,-0.0294,-0.0274,-0.0274,-0.0274,0,-0.0215,-0.0142,-0.0066,-0.0045,0.0022,0.0053,0.0079,0.0105,0.0141,0.0159,0.0185,0.0145,0.0137,0.0043,-0.0059,-0.009,-0.0141,-0.0199,-0.0256,-0.0257,-0.0235,-0.0234,-0.0272,-0.0248,-0.0248,-0.0248,-0.0248,0,-0.019,-0.0143,-0.0047,-0.001,0.0067,0.0097,0.0169,0.0187,0.0231,0.0299,0.025,0.0292,0.0152,0.0104,-0.0017,-0.0116,-0.0109,-0.0228,-0.0255,-0.0214,-0.0211,-0.0295,-0.0363,-0.0248,-0.0248,-0.0248,-0.0248,0,-0.0211,-0.0134,-0.0052,0.0044,0.0081,0.0126,0.0217,0.0274,0.0312,0.0396,0.0409,0.04,0.0352,0.0218,0.0084,-0.0038,-0.0195,-0.0189,-0.0119,-0.0138,-0.0284,-0.035,-0.0446,-0.0483,-0.0258,-0.0258,-0.0258,0,-0.0201,-0.0152,-0.0032,0.0034,0.0077,0.0161,0.0232,0.0298,0.0374,0.048,0.0534,0.052,0.0545,0.036,0.0144,-0.0045,-0.0162,-0.0141,-0.0196,-0.0263,-0.0358,-0.0429,-0.0459,-0.0144,-0.0143,-0.0142,-0.0141,0,-0.0195,-0.016,-0.0101,0.0035,0.0132,0.0247,0.0359,0.0432,0.0541,0.0639,0.0774,0.0808,0.0645,0.0509,0.0238,0.0078,-0.0193,-0.0132,-0.0221,-0.0276,-0.0336,-0.0393,-0.016,-0.0134,-0.0135,-0.0136,-0.0136,-0.0136,-0.0208,-0.0168,-0.0063,0.0055,0.018,0.0357,0.0472,0.0608,0.0775,0.0974,0.0968,0.1074,0.0841,0.049,0.0268,-0.01,-0.016,-0.0209,-0.0284,-0.0349,-0.0384,-0.0126,-0.0127,-0.0127,-0.0128,-0.0128,-0.0129,0,-0.0194,-0.0125,-0.0022,0.0162,0.032,0.0384,0.0593,0.0745,0.0982,0.1125,0.1267,0.1233,0.0937,0.0581,0.0078,-0.0184,-0.031,-0.0331,-0.0411,-0.0436,-0.0206,-0.0198,-0.0191,-0.0191,-0.0191,-0.0191,-0.0191,-0.0191,-0.0164,-0.0076,-0.0006,0.0281,0.042,0.067,0.0812,0.1028,0.1179,0.1417,0.1499,0.1528,0.1297,0.0399,-0.0181,-0.0334,-0.0523,-0.0571,-0.0679,-0.0508,-0.0502,-0.0496,-0.0503,-0.056,-0.056,-0.0855,-0.0858,-0.086]}],[{"header":{"parameterUnit":"m.s-1","parameterCategory":2,"la1":30.2991,"la2":30.254,"lo1":-89.0895,"lo2":-89.0444,"dy":0.0017,"dx":0.0017,"nx":28,"ny":28,"refTime":"2023-08-07T03:00:00:Z","depth":"2","parameterNumber":2,"parameterNumberName":"U-component_of_CURRENTS"},"data":[0,0,0,0,0,0,0,0,0,0,0,0,0,0,0,0,0,0,0,0,0,0,0,0,0,0,0,0,0,0,0,0,0,0,0,0,0,0,0,0,0,0,0,0,0,0,0,0,0,0,0,0,0,0,0,0,0,0,0.0583,0.0585,0,0.07,0.07,0.07,0.0755,0.0757,0.0758,0.076,0.078,0.0779,0.0778,0,0,0,0,0,0,0,0,0,0,0,0,0,0.0678,0.0672,0.0582,0.0586,0.0589,0.07,0.07,0.07,0.0755,0.0757,0.0759,0.0761,0.078,0.0779,0.0777,0,0,0,0,0,0,0,0,0,0,0,0,0,0.0681,0.0671,0.0582,0.0643,0.0651,0.07,0.07,0.07,0.0754,0.0757,0.0759,0.0762,0.078,0.0779,0.0777,0.0719,0,0,0.0773,0.0772,0,0,0,0,0,0,0,0,0.0681,0.0675,0.0631,0.0639,0.0649,0.0732,0.0743,0.0708,0.0754,0.0695,0.076,0.0763,0.0765,0.0765,0.0756,0.072,0.0721,0.0773,0.0772,0.0771,0.0771,0,0,0,0,0,0,0,0.068,0.0673,0.061,0.0635,0.0646,0.0761,0.0759,0.0736,0.0698,0.0701,0.071,0.0752,0.0767,0.0757,0.0757,0.0721,0.0773,0.0771,0.077,0.077,0.0827,0.0829,0,0,0,0,0,0,0.0685,0.0669,0.0607,0.0616,0.0692,0.0757,0.0755,0.0687,0.0701,0.0712,0.075,0.0754,0.0759,0.0759,0.0758,0.0906,0.0771,0.077,0.0769,0.0824,0.0827,0.083,0,0,0,0,0,0,0.0684,0.0673,0.0602,0.0669,0.067,0.0752,0.0677,0.0689,0.078,0.0743,0.0748,0.0844,0.0761,0.076,0.0767,0.0899,0.0769,0.0768,0.0821,0.0825,0.0828,0.1063,0,0,0,0,0,0,0.0684,0.0668,0.0642,0.0664,0.0667,0.0683,0.0678,0.069,0.0805,0.0815,0.0823,0.0822,0.0763,0.0769,0.0765,0.0895,0.0766,0.0818,0.0823,0.0827,0.1053,0.1075,0.1093,0,0,0,0,0,0.0685,0.0628,0.0636,0.0634,0.0614,0.0688,0.0698,0.0757,0.0809,0.0848,0.0829,0.0827,0.0798,0.0767,0.0763,0.0896,0.0816,0.0822,0.0827,0.1043,0.107,0.1093,0,0,0,0,0,0,0.0689,0.0631,0.064,0.0576,0.0662,0.0706,0.0755,0.0819,0.0839,0.0875,0.0823,0.0817,0.0885,0.0835,0.0804,0.0921,0.0822,0.0827,0.0989,0.1013,0.1033,0.1079,0.0765,0,0,0,0,0,0.0669,0.0571,0.0628,0.0587,0.064,0.0723,0.0776,0.0846,0.0873,0.0893,0.0881,0.0879,0.0886,0.0906,0.0879,0.0928,0.0916,0.1017,0.1038,0.1056,0.1087,0.1132,0.1161,0.0847,0.0847,0.0847,0,0,0.0641,0.0622,0.0559,0.0581,0.0644,0.0711,0.0756,0.0883,0.0931,0.0886,0.0922,0.0947,0.0908,0.0958,0.099,0.0949,0.1145,0.1062,0.1079,0.11,0.1141,0.1172,0.1199,0.0851,0.085,0.085,0,0,0.0618,0.0559,0.0525,0.0612,0.0758,0.0772,0.0842,0.0946,0.099,0.103,0.1036,0.1139,0.1088,0.1134,0.1138,0.1256,0.1243,0.1273,0.1434,0.1478,0.1505,0.1529,0.159,0.1617,0.1295,0.1296,0.1296,0,0.0619,0.0573,0.0556,0.0644,0.0714,0.0811,0.09,0.0936,0.1025,0.109,0.1062,0.1161,0.1172,0.1296,0.1362,0.1318,0.1328,0.1352,0.1511,0.1533,0.1553,0.161,0.1637,0.1308,0.1306,0.1305,0.1304,0,0.0645,0.0643,0.067,0.0718,0.0785,0.0892,0.0969,0.1042,0.1097,0.1172,0.1323,0.1333,0.1419,0.1471,0.1456,0.1657,0.1616,0.1527,0.1461,0.16,0.1649,0.1674,0.1325,0.1321,0.1317,0.1314,0,0,0.0596,0.0641,0.0689,0.0746,0.0861,0.0939,0.0989,0.1103,0.1222,0.1306,0.1439,0.1558,0.1678,0.1693,0.1748,0.1835,0.2038,0.1783,0.1779,0.1868,0.2163,0.1985,0.1993,0.1976,0.1981,0.1985,0.2154,0,0.0659,0.0754,0.0767,0.089,0.0949,0.1035,0.1073,0.1212,0.1287,0.142,0.1557,0.1685,0.1719,0.1831,0.1935,0.1987,0.2106,0.2002,0.1992,0.1993,0.1837,0.2016,0.1811,0.193,0.2177,0.2181,0.2184,0,0.0753,0.0788,0.0877,0.0974,0.1028,0.1112,0.1261,0.1329,0.1513,0.1595,0.178,0.1855,0.2071,0.2027,0.223,0.2159,0.2222,0.2244,0.2247,0.2015,0.1859,0.1819,0.1963,0.2223,0.2219,0.2217,0.2214,0,0.0785,0.09,0.0938,0.0999,0.11,0.1197,0.1273,0.1443,0.152,0.1748,0.1841,0.2054,0.2173,0.2256,0.2355,0.2306,0.2515,0.2413,0.2321,0.2308,0.2098,0.2057,0.2575,0.2574,0.2574,0.2574,0.2573,0,0.0847,0.0946,0.0986,0.1063,0.1187,0.1275,0.1443,0.156,0.1711,0.1865,0.1983,0.2114,0.2238,0.2352,0.2408,0.245,0.2557,0.2405,0.2354,0.2171,0.2137,0.233,0.23,0.258,0.2579,0.2577,0.2576,0,0.0934,0.0934,0.104,0.1159,0.1202,0.1343,0.1502,0.1618,0.1766,0.1943,0.2013,0.2194,0.2338,0.2417,0.2567,0.2507,0.2552,0.2548,0.2338,0.2257,0.231,0.2289,0.2449,0.2444,0.244,0.2437,0.2434,0,0.0966,0.1017,0.1125,0.1177,0.1261,0.1419,0.15,0.1647,0.1752,0.1996,0.208,0.2262,0.2386,0.2488,0.2405,0.2416,0.2544,0.2242,0.2094,0.2371,0.2305,0.2291,0.2276,0.1947,0.194,0.1935,0.1931,0,0.1033,0.1089,0.1118,0.1237,0.1342,0.1451,0.1604,0.1655,0.184,0.197,0.2181,0.2287,0.2349,0.2244,0.2194,0.2161,0.2193,0.2125,0.2519,0.1961,0.1896,0.1831,0.1834,0.1883,0.1888,0.1891,0.1894,0.1896,0.1037,0.1107,0.1125,0.1283,0.1356,0.1476,0.1562,0.1681,0.1803,0.195,0.2114,0.2168,0.1993,0.1771,0.1756,0.1767,0.1866,0.1794,0.1813,0.1836,0.1699,0.1625,0.154,0.1542,0.1545,0.1547,0.1549,0,0.0995,0.1105,0.1182,0.1301,0.1378,0.1471,0.1591,0.1635,0.1752,0.1824,0.1944,0.1599,0.147,0.1461,0.1381,0.1308,0.1317,0.1304,0.1333,0.1376,0.1416,0.1261,0.0985,0.0984,0.0983,0.0983,0,0,0.0953,0.1009,0.1095,0.1233,0.1364,0.146,0.152,0.1569,0.1597,0.1565,0.1519,0.1353,0.1342,0.1052,0.0994,0.1081,0.1241,0.1033,0.147,0.1548,0.1589,0.1661,0.1463,0,0,0,0,0]},{"header":{"parameterUnit":"m.s-1","parameterCategory":2,"la1":30.2991,"la2":30.254,"lo1":-89.0895,"lo2":-89.0444,"dy":0.0017,"dx":0.0017,"nx":28,"ny":28,"refTime":"2023-08-07T03:00:00:Z","depth":"2","parameterNumber":3,"parameterNumberName":"V-component_of_CURRENTS"},"data":[0,0,0,0,0,0,0,0,0,0,0,0,0,0,0,0,0,0,0,0,0,0,0,0,0,0,0,0,0,0,0,0,0,0,0,0,0,0,0,0,0,0,0,0,0,0,0,0,0,0,0,0,0,0,0,0,0,0,-0.0067,-0.0068,0,-0.0126,-0.0126,-0.0126,-0.015,-0.0151,-0.0151,-0.0151,-0.0211,-0.0213,-0.0214,0,0,0,0,0,0,0,0,0,0,0,0,0,-0.0033,-0.0032,-0.0066,-0.0068,-0.0069,-0.0125,-0.0126,-0.0126,-0.015,-0.0151,-0.0151,-0.0151,-0.0211,-0.0213,-0.0214,0,0,0,0,0,0,0,0,0,0,0,0,0,-0.0061,-0.0032,-0.0066,-0.0091,-0.0094,-0.0125,-0.0126,-0.0126,-0.015,-0.0151,-0.0151,-0.0151,-0.0211,-0.0212,-0.0214,-0.0219,0,0,-0.0221,-0.0222,0,0,0,0,0,0,0,0,-0.0059,-0.0061,-0.0086,-0.0089,-0.0093,-0.0135,-0.0136,-0.0159,-0.015,-0.0124,-0.0151,-0.0152,-0.0189,-0.0192,-0.0196,-0.0222,-0.0224,-0.0221,-0.0222,-0.0223,-0.0224,0,0,0,0,0,0,0,-0.0057,-0.0059,-0.0085,-0.0087,-0.0092,-0.0119,-0.0123,-0.0141,-0.015,-0.0126,-0.013,-0.0143,-0.019,-0.0194,-0.0198,-0.0225,-0.0221,-0.0223,-0.0224,-0.0225,-0.0316,-0.0317,0,0,0,0,0,0,-0.0055,-0.0057,-0.0084,-0.0088,-0.0082,-0.012,-0.0123,-0.0117,-0.015,-0.0156,-0.0143,-0.0144,-0.0191,-0.0196,-0.02,-0.0213,-0.0223,-0.0225,-0.0226,-0.0314,-0.0316,-0.0317,0,0,0,0,0,0,-0.0053,-0.0056,-0.0081,-0.0079,-0.0084,-0.012,-0.0113,-0.0118,-0.0143,-0.0163,-0.0169,-0.0164,-0.0191,-0.0197,-0.0238,-0.0215,-0.0226,-0.0228,-0.0313,-0.0315,-0.0317,-0.0234,0,0,0,0,0,0,-0.0052,-0.0054,-0.0041,-0.0078,-0.0085,-0.009,-0.0113,-0.0119,-0.0151,-0.0154,-0.0183,-0.0188,-0.0192,-0.0235,-0.024,-0.0218,-0.0229,-0.0312,-0.0314,-0.0316,-0.0235,-0.0233,-0.0231,0,0,0,0,0,-0.005,-0.0013,-0.004,-0.0043,-0.0067,-0.009,-0.0095,-0.012,-0.0152,-0.0147,-0.019,-0.0188,-0.0252,-0.0237,-0.0243,-0.0221,-0.031,-0.0313,-0.0316,-0.0236,-0.0233,-0.0231,0,0,0,0,0,0,0.0016,-0.0014,-0.0043,-0.0017,-0.0057,-0.0096,-0.0096,-0.0133,-0.0163,-0.0179,-0.0204,-0.0211,-0.0233,-0.0258,-0.0241,-0.0262,-0.0281,-0.0285,-0.0219,-0.0216,-0.0214,-0.0191,-0.0231,0,0,0,0,0,0.0031,0.0047,-0.0004,0.0013,-0.001,-0.0066,-0.0081,-0.0111,-0.015,-0.0164,-0.019,-0.0227,-0.0246,-0.0258,-0.0279,-0.0293,-0.0317,-0.0289,-0.0286,-0.0284,-0.0275,-0.0319,-0.0318,-0.0326,-0.0326,-0.0326,0,0,0.0063,0.0043,0.0054,0.0026,-0.0012,-0.0025,-0.0074,-0.0105,-0.0105,-0.0167,-0.0175,-0.022,-0.0253,-0.026,-0.0272,-0.0278,-0.0292,-0.0287,-0.0284,-0.0276,-0.0321,-0.032,-0.0319,-0.0328,-0.0328,-0.0327,0,0,0.011,0.0104,0.0114,0.0085,0.0023,-0.0,-0.0017,-0.0076,-0.0087,-0.012,-0.016,-0.0204,-0.0235,-0.0247,-0.0259,-0.0268,-0.0281,-0.0278,-0.0237,-0.0279,-0.0277,-0.0277,-0.0283,-0.0283,-0.0272,-0.0272,-0.0272,0,0.0119,0.0144,0.0113,0.0097,0.0088,0.0009,0.0007,-0.0011,-0.0072,-0.0079,-0.0114,-0.0181,-0.022,-0.0218,-0.0227,-0.0254,-0.0276,-0.0232,-0.0271,-0.0271,-0.0272,-0.0278,-0.028,-0.0269,-0.0269,-0.0269,-0.027,0,0.0178,0.0171,0.0172,0.0139,0.0136,0.0117,0.0082,0.0065,0.0024,-0.0005,-0.0033,-0.0097,-0.0137,-0.0157,-0.0195,-0.0211,-0.0222,-0.026,-0.0264,-0.0265,-0.0273,-0.0276,-0.0263,-0.0265,-0.0266,-0.0267,0,0,0.0176,0.0209,0.0188,0.0191,0.0152,0.0152,0.0164,0.0152,0.0153,0.0091,0.01,0.0032,-0.0029,-0.0051,-0.0105,-0.0149,-0.0178,-0.0207,-0.0211,-0.0186,-0.0247,-0.0194,-0.0192,-0.0224,-0.0225,-0.0225,-0.0241,0,0.0186,0.0229,0.0234,0.0247,0.0254,0.0223,0.0249,0.0234,0.021,0.0201,0.0132,0.0107,0.0025,-0.0006,-0.006,-0.0147,-0.0187,-0.0169,-0.0273,-0.0276,-0.0207,-0.0194,-0.0207,-0.0218,-0.0244,-0.0245,-0.0245,0,0.0168,0.0222,0.0279,0.0312,0.0309,0.0315,0.0344,0.0355,0.0334,0.0315,0.0273,0.0213,0.0155,0.0067,-0.0054,-0.004,-0.0142,-0.0214,-0.0217,-0.0197,-0.0228,-0.0231,-0.0223,-0.025,-0.025,-0.025,-0.0249,0,0.018,0.0201,0.0279,0.0287,0.0342,0.0355,0.037,0.0371,0.0396,0.0377,0.0377,0.0304,0.0263,0.0136,-0.0014,-0.0045,-0.0143,-0.0204,-0.0241,-0.0238,-0.0283,-0.0282,-0.0304,-0.0304,-0.0304,-0.0304,-0.0303,0,0.0176,0.0196,0.0281,0.0329,0.0375,0.0392,0.0427,0.0432,0.0454,0.0492,0.0423,0.0442,0.0266,0.0191,0.0039,-0.0079,-0.0102,-0.0218,-0.0239,-0.0253,-0.0249,-0.0316,-0.0317,-0.0304,-0.0304,-0.0304,-0.0304,0,0.0144,0.0213,0.0264,0.0358,0.038,0.0398,0.0455,0.0491,0.0507,0.0559,0.0559,0.0535,0.0455,0.0302,0.0118,0.0006,-0.0126,-0.0174,-0.015,-0.0167,-0.0206,-0.0203,-0.0209,-0.0208,-0.0206,-0.0205,-0.0204,0,0.0166,0.0192,0.0282,0.0321,0.0352,0.0397,0.0445,0.0496,0.0553,0.0628,0.0669,0.0627,0.0632,0.0436,0.0204,0.0003,-0.0065,-0.0127,-0.0198,-0.0177,-0.0197,-0.0197,-0.0196,-0.0228,-0.0227,-0.0227,-0.0226,0,0.018,0.0172,0.0251,0.0326,0.0376,0.0456,0.0531,0.0598,0.0684,0.0766,0.0878,0.0899,0.071,0.0521,0.0257,0.011,-0.0089,-0.0118,-0.0121,-0.0232,-0.0191,-0.0212,-0.0212,-0.0221,-0.0222,-0.0222,-0.0222,-0.0222,0.0159,0.0183,0.0265,0.0318,0.0402,0.0531,0.0625,0.0742,0.0891,0.1031,0.1031,0.1033,0.0689,0.0356,0.016,-0.0024,-0.003,-0.0146,-0.0151,-0.0155,-0.0136,-0.0094,-0.01,-0.01,-0.0099,-0.0099,-0.0099,0,0.0151,0.0183,0.0262,0.0377,0.0496,0.0532,0.0713,0.0851,0.1069,0.1104,0.1204,0.0872,0.0646,0.0343,0.008,-0.0096,-0.0149,-0.0149,-0.0207,-0.021,-0.0213,-0.0201,-0.018,-0.0181,-0.0181,-0.0182,0,0,0.0158,0.0204,0.0263,0.0454,0.055,0.0751,0.0881,0.1085,0.1167,0.1258,0.1188,0.0983,0.0613,0.0327,0.0084,0.0006,-0.005,-0.0021,0.0062,0.0022,0.0022,-0.0195,-0.0175,0,0,0,0,0]}],[{"header":{"parameterUnit":"m.s-1","parameterCategory":2,"la1":30.2991,"la2":30.254,"lo1":-89.0895,"lo2":-89.0444,"dy":0.0017,"dx":0.0017,"nx":28,"ny":28,"refTime":"2023-08-07T03:00:00:Z","depth":"4","parameterNumber":2,"parameterNumberName":"U-component_of_CURRENTS"},"data":[0,0,0,0,0,0,0,0,0,0,0,0,0,0,0,0,0,0,0,0,0,0,0,0,0,0,0,0,0,0,0,0,0,0,0,0,0,0,0,0,0,0,0,0,0,0,0,0,0,0,0,0,0,0,0,0,0,0,-0.0531,-0.0531,0,-0.0578,-0.0579,-0.0579,-0.0593,-0.0593,-0.0593,-0.0593,-0.0679,-0.0682,-0.0684,0,0,0,0,0,0,0,0,0,0,0,0,0,-0.0528,-0.0528,-0.0531,-0.0531,-0.0532,-0.0578,-0.0579,-0.0579,-0.0593,-0.0593,-0.0593,-0.0592,-0.0678,-0.0681,-0.0684,0,0,0,0,0,0,0,0,0,0,0,0,0,-0.0548,-0.0527,-0.053,-0.0544,-0.0546,-0.0578,-0.0579,-0.058,-0.0593,-0.0593,-0.0593,-0.0592,-0.0677,-0.0681,-0.0685,-0.0716,0,0,-0.0696,-0.0698,0,0,0,0,0,0,0,0,-0.0546,-0.0548,-0.0542,-0.0543,-0.0545,-0.0579,-0.061,-0.0627,-0.0593,-0.0575,-0.0592,-0.0592,-0.065,-0.0656,-0.0665,-0.072,-0.0724,-0.0697,-0.0699,-0.0701,-0.0702,0,0,0,0,0,0,0,-0.0545,-0.0546,-0.0549,-0.0542,-0.0545,-0.0574,-0.0576,-0.0613,-0.0615,-0.0577,-0.0578,-0.0583,-0.0651,-0.0661,-0.0667,-0.0725,-0.0697,-0.07,-0.0702,-0.0704,-0.0824,-0.0825,0,0,0,0,0,0,-0.0535,-0.0544,-0.0548,-0.0551,-0.0545,-0.0574,-0.0576,-0.0569,-0.0614,-0.062,-0.0584,-0.0584,-0.0655,-0.0663,-0.067,-0.075,-0.0701,-0.0704,-0.0707,-0.0823,-0.0824,-0.0825,0,0,0,0,0,0,-0.0535,-0.0535,-0.0546,-0.055,-0.0553,-0.0574,-0.0566,-0.057,-0.0613,-0.0618,-0.0625,-0.0626,-0.0655,-0.0665,-0.0697,-0.0752,-0.0706,-0.071,-0.0822,-0.0823,-0.0824,-0.0884,0,0,0,0,0,0,-0.0534,-0.0534,-0.0536,-0.0548,-0.0552,-0.0579,-0.0567,-0.0571,-0.0615,-0.0616,-0.0657,-0.0662,-0.0655,-0.0691,-0.0701,-0.0756,-0.0712,-0.0821,-0.0822,-0.0824,-0.0881,-0.0887,-0.0892,0,0,0,0,0,-0.0534,-0.0541,-0.0535,-0.0536,-0.055,-0.058,-0.0586,-0.06,-0.0618,-0.0639,-0.0646,-0.0663,-0.0709,-0.0694,-0.0706,-0.0764,-0.082,-0.0822,-0.0824,-0.0878,-0.0886,-0.0892,0,0,0,0,0,0,-0.0552,-0.0543,-0.0537,-0.0543,-0.0564,-0.0583,-0.0609,-0.0627,-0.0654,-0.0668,-0.067,-0.0676,-0.073,-0.0731,-0.0715,-0.0799,-0.0771,-0.0775,-0.0808,-0.0816,-0.0821,-0.0855,-0.0716,0,0,0,0,0,-0.0552,-0.0548,-0.0556,-0.0565,-0.0579,-0.0604,-0.0625,-0.0644,-0.0664,-0.0678,-0.0698,-0.072,-0.0744,-0.0765,-0.0785,-0.0834,-0.0834,-0.0877,-0.0883,-0.0888,-0.0921,-0.0966,-0.0979,-0.0832,-0.0832,-0.0832,0,0,-0.0553,-0.0558,-0.055,-0.0568,-0.0588,-0.061,-0.0617,-0.0667,-0.0689,-0.0685,-0.0729,-0.0752,-0.0761,-0.0803,-0.0829,-0.0814,-0.0917,-0.0891,-0.0895,-0.0926,-0.0969,-0.0984,-0.0997,-0.0833,-0.0833,-0.0832,0,0,-0.057,-0.0571,-0.0576,-0.0594,-0.0635,-0.065,-0.0674,-0.0713,-0.0735,-0.0779,-0.0777,-0.082,-0.0864,-0.087,-0.088,-0.0934,-0.0949,-0.0958,-0.1021,-0.1063,-0.1077,-0.1088,-0.1052,-0.1061,-0.0959,-0.0959,-0.0959,0,-0.0579,-0.0581,-0.0589,-0.061,-0.0628,-0.0671,-0.0697,-0.0725,-0.0769,-0.0786,-0.0801,-0.0878,-0.0894,-0.0936,-0.0963,-0.0953,-0.0963,-0.0993,-0.1073,-0.1086,-0.1097,-0.1057,-0.1066,-0.0962,-0.0962,-0.0962,-0.0961,0,-0.0588,-0.0605,-0.0623,-0.0644,-0.0667,-0.0709,-0.0737,-0.0778,-0.0824,-0.0843,-0.0918,-0.0946,-0.1001,-0.1011,-0.1016,-0.1107,-0.1079,-0.1078,-0.106,-0.1116,-0.1069,-0.1077,-0.0967,-0.0966,-0.0965,-0.0964,0,0,-0.057,-0.0616,-0.0627,-0.0637,-0.0694,-0.0712,-0.0761,-0.0801,-0.0847,-0.0905,-0.0965,-0.1028,-0.1087,-0.1105,-0.1129,-0.1172,-0.1244,-0.1186,-0.1187,-0.1157,-0.1305,-0.1047,-0.103,-0.1281,-0.1284,-0.1286,-0.122,0,-0.0582,-0.0613,-0.0645,-0.0682,-0.069,-0.0744,-0.0783,-0.0827,-0.0886,-0.0952,-0.1006,-0.1086,-0.1108,-0.118,-0.1231,-0.1245,-0.1279,-0.126,-0.1251,-0.1249,-0.1021,-0.1037,-0.1296,-0.1226,-0.1227,-0.1229,-0.1229,0,-0.058,-0.0593,-0.0632,-0.0682,-0.0698,-0.076,-0.0834,-0.089,-0.0977,-0.103,-0.1127,-0.1168,-0.1254,-0.1286,-0.1344,-0.1342,-0.1361,-0.1353,-0.135,-0.1108,-0.1009,-0.1171,-0.1243,-0.1242,-0.1241,-0.124,-0.124,0,-0.0537,-0.0589,-0.062,-0.0635,-0.0699,-0.0768,-0.0852,-0.0937,-0.098,-0.1134,-0.1168,-0.1267,-0.1323,-0.1387,-0.136,-0.1399,-0.1378,-0.1409,-0.1175,-0.1154,-0.1383,-0.1372,-0.1482,-0.1482,-0.1482,-0.1482,-0.1482,0,-0.0524,-0.055,-0.0625,-0.0644,-0.072,-0.0786,-0.0911,-0.1001,-0.1108,-0.1126,-0.1258,-0.1225,-0.1371,-0.1339,-0.1367,-0.1239,-0.1377,-0.1186,-0.1134,-0.1397,-0.1389,-0.1384,-0.1374,-0.1479,-0.148,-0.148,-0.1481,0,-0.048,-0.053,-0.0574,-0.0666,-0.0717,-0.0802,-0.0971,-0.1015,-0.1147,-0.1185,-0.1232,-0.1224,-0.115,-0.1189,-0.1215,-0.1178,-0.1125,-0.1055,-0.1261,-0.122,-0.0881,-0.0875,-0.0821,-0.0812,-0.0804,-0.0798,-0.0792,0,-0.0459,-0.0475,-0.0592,-0.0646,-0.0728,-0.0858,-0.0921,-0.1064,-0.1083,-0.1088,-0.1047,-0.0999,-0.0974,-0.0774,-0.0844,-0.0835,-0.0838,-0.0838,-0.0956,-0.0866,-0.0821,-0.0827,-0.0831,-0.0779,-0.0777,-0.0775,-0.0773,0,-0.0415,-0.0488,-0.0527,-0.0635,-0.0738,-0.0777,-0.0889,-0.0871,-0.0949,-0.1045,-0.0837,-0.0757,-0.062,-0.0574,-0.0565,-0.0563,-0.0865,-0.0757,-0.0777,-0.0888,-0.0815,-0.0779,-0.0793,-0.0746,-0.075,-0.0752,-0.0754,0,-0.041,-0.045,-0.0534,-0.0626,-0.0693,-0.0661,-0.0732,-0.0689,-0.071,-0.0722,-0.0592,-0.0521,-0.0531,-0.0415,-0.037,-0.0368,-0.0403,-0.0466,-0.0503,-0.0534,-0.047,-0.0337,-0.0073,0,0,0,0,0,-0.0392,-0.045,-0.0512,-0.0569,-0.0585,-0.0626,-0.0652,-0.0684,-0.0723,-0.0548,-0.059,-0.044,-0.0309,-0.0232,-0.0178,-0.025,-0.0427,-0.0185,-0.0526,-0.0594,-0.0626,-0.0577,0,0,0,0,0,0,-0.0402,-0.0477,-0.0502,-0.0463,-0.0459,-0.0451,-0.0454,-0.0463,-0.0377,-0.0419,-0.0332,-0.0399,-0.0272,-0.0335,-0.016,-0.016,-0.0358,-0.0178,-0.0175,-0.0576,-0.0605,-0.063,-0.0592,0,0,0,0,0]},{"header":{"parameterUnit":"m.s-1","parameterCategory":2,"la1":30.2991,"la2":30.254,"lo1":-89.0895,"lo2":-89.0444,"dy":0.0017,"dx":0.0017,"nx":28,"ny":28,"refTime":"2023-08-07T03:00:00:Z","depth":"4","parameterNumber":3,"parameterNumberName":"V-component_of_CURRENTS"},"data":[0,0,0,0,0,0,0,0,0,0,0,0,0,0,0,0,0,0,0,0,0,0,0,0,0,0,0,0,0,0,0,0,0,0,0,0,0,0,0,0,0,0,0,0,0,0,0,0,0,0,0,0,0,0,0,0,0,0,0.0156,0.0156,0,0.017,0.017,0.017,0.0177,0.0177,0.0177,0.0177,0.0152,0.0151,0.015,0,0,0,0,0,0,0,0,0,0,0,0,0,0.0176,0.0175,0.0156,0.0156,0.0157,0.017,0.017,0.017,0.0177,0.0177,0.0177,0.0177,0.0152,0.0151,0.015,0,0,0,0,0,0,0,0,0,0,0,0,0,0.0175,0.0175,0.0156,0.0162,0.0163,0.017,0.017,0.017,0.0176,0.0177,0.0177,0.0177,0.0152,0.0151,0.015,0.0139,0,0,0.0147,0.0146,0,0,0,0,0,0,0,0,0.0175,0.0174,0.0161,0.0162,0.0163,0.0173,0.0168,0.0159,0.0176,0.017,0.0177,0.0177,0.0156,0.0155,0.0155,0.0138,0.0137,0.0146,0.0146,0.0145,0.0145,0,0,0,0,0,0,0,0.0175,0.0174,0.016,0.0161,0.0163,0.0179,0.0179,0.0167,0.016,0.017,0.0171,0.0175,0.0156,0.0157,0.0155,0.0137,0.0146,0.0145,0.0145,0.0144,0.0034,0.0032,0,0,0,0,0,0,0.0174,0.0173,0.016,0.0161,0.0171,0.0179,0.0178,0.0168,0.0161,0.0161,0.0175,0.0176,0.0158,0.0156,0.0154,0.0097,0.0145,0.0144,0.0143,0.0037,0.0034,0.0031,0,0,0,0,0,0,0.0174,0.0172,0.0159,0.017,0.0169,0.0178,0.0167,0.0169,0.0179,0.0165,0.0164,0.0185,0.0158,0.0155,0.0115,0.0098,0.0144,0.0143,0.0039,0.0036,0.0033,0.0012,0,0,0,0,0,0,0.0174,0.0171,0.0161,0.0169,0.0169,0.0152,0.0167,0.0169,0.0181,0.0182,0.0173,0.017,0.0158,0.0116,0.0114,0.0097,0.0142,0.0042,0.0038,0.0034,0.0015,0.0008,0.0002,0,0,0,0,0,0.0174,0.0158,0.016,0.0159,0.0155,0.0151,0.0152,0.0159,0.0181,0.0172,0.0153,0.0171,0.0088,0.0114,0.0111,0.0094,0.0044,0.0039,0.0034,0.0018,0.0009,0.0002,0,0,0,0,0,0,0.0163,0.0158,0.016,0.0143,0.0143,0.0152,0.0148,0.0166,0.0149,0.0153,0.0146,0.014,0.0096,0.0091,0.012,0.0044,0.0068,0.0063,0.0057,0.0049,0.0042,0.0058,0.0141,0,0,0,0,0,0.0155,0.0138,0.0143,0.0128,0.0129,0.0144,0.0147,0.0157,0.0148,0.0144,0.0128,0.0105,0.0072,0.0059,0.0027,-0.0005,0.002,-0.0022,-0.0029,-0.0034,-0.0028,-0.0006,-0.0008,0.0015,0.0015,0.0015,0,0,0.0141,0.0143,0.0129,0.0124,0.0127,0.0106,0.0145,0.015,0.0123,0.0142,0.009,0.0083,0.0055,0.0005,-0.0014,0.0003,-0.0033,-0.004,-0.0044,-0.0035,-0.0011,-0.0012,-0.0014,0.0012,0.0012,0.0013,0,0,0.0114,0.0112,0.0091,0.0083,0.0092,0.0092,0.0097,0.0101,0.0092,0.0054,0.005,0.0029,-0.0017,-0.0044,-0.0061,-0.0122,-0.0071,-0.0128,-0.014,-0.012,-0.012,-0.012,-0.0098,-0.0096,-0.0127,-0.0127,-0.0127,0,0.0103,0.0073,0.0085,0.0065,0.0049,0.0083,0.0054,0.0043,0.0028,0.001,0.0026,-0.0033,-0.0046,-0.0101,-0.012,-0.0134,-0.0103,-0.0101,-0.0123,-0.0122,-0.0122,-0.01,-0.0097,-0.0128,-0.0128,-0.0128,-0.0128,0,0.0062,0.003,0.002,-0.0009,-0.0024,-0.0039,-0.0051,-0.0073,-0.0067,-0.0072,-0.0112,-0.0122,-0.0142,-0.0159,-0.0152,-0.0166,-0.014,-0.0131,-0.0089,-0.0124,-0.01,-0.0097,-0.0131,-0.013,-0.0129,-0.0129,0,0,0.0046,-0.0001,-0.0009,-0.004,-0.0062,-0.0078,-0.0134,-0.0171,-0.0199,-0.0202,-0.0231,-0.0265,-0.0214,-0.023,-0.0213,-0.0196,-0.0165,-0.0148,-0.0146,-0.0104,-0.01,-0.0158,-0.0159,-0.0138,-0.0137,-0.0137,-0.0086,0,0.0008,-0.0046,-0.0066,-0.014,-0.0171,-0.0187,-0.0247,-0.0274,-0.0285,-0.031,-0.0289,-0.0294,-0.0257,-0.023,-0.0213,-0.0171,-0.0155,-0.0178,-0.0093,-0.0091,-0.0118,-0.0158,-0.0136,-0.0083,-0.0082,-0.0081,-0.0081,0,-0.0032,-0.0062,-0.0133,-0.021,-0.0226,-0.0271,-0.0342,-0.0384,-0.0412,-0.0402,-0.038,-0.0338,-0.03,-0.0256,-0.0188,-0.0191,-0.0142,-0.0115,-0.0113,-0.0153,-0.0143,-0.0043,-0.0074,-0.0074,-0.0075,-0.0075,-0.0076,0,-0.0046,-0.0119,-0.0177,-0.0203,-0.0279,-0.0326,-0.0363,-0.0413,-0.0439,-0.0423,-0.0402,-0.0361,-0.0306,-0.0244,-0.0165,-0.0149,-0.01,-0.0077,-0.0098,-0.0101,-0.0047,-0.0048,-0.0041,-0.0041,-0.0041,-0.0041,-0.0041,0,-0.009,-0.0143,-0.0189,-0.0227,-0.0303,-0.0342,-0.0415,-0.0444,-0.046,-0.0473,-0.0416,-0.0397,-0.0288,-0.0244,-0.0178,-0.0133,-0.0101,-0.0106,-0.0097,-0.0062,-0.0065,-0.0045,-0.0046,-0.0039,-0.004,-0.004,-0.004,0,-0.0121,-0.0153,-0.0218,-0.0288,-0.0317,-0.0365,-0.0432,-0.0468,-0.0468,-0.0473,-0.044,-0.0392,-0.0322,-0.0261,-0.0172,-0.0151,-0.0105,-0.0104,-0.0082,-0.007,-0.011,-0.0113,-0.0101,-0.0103,-0.0104,-0.0105,-0.0106,0,-0.0151,-0.0177,-0.0245,-0.0273,-0.0313,-0.0379,-0.0426,-0.0462,-0.0477,-0.0477,-0.0466,-0.0408,-0.0368,-0.0285,-0.0238,-0.0152,-0.0148,-0.0122,-0.0108,-0.0127,-0.0118,-0.0119,-0.012,-0.0109,-0.0109,-0.0109,-0.011,0,-0.0191,-0.0199,-0.0248,-0.0279,-0.0332,-0.0404,-0.0458,-0.0446,-0.0472,-0.0481,-0.0443,-0.0402,-0.0364,-0.0294,-0.0246,-0.0189,-0.0133,-0.0136,-0.0132,-0.0119,-0.0136,-0.0126,-0.0126,-0.0115,-0.0114,-0.0114,-0.0113,0,-0.021,-0.0239,-0.0262,-0.0284,-0.0335,-0.038,-0.0428,-0.0436,-0.0454,-0.0427,-0.043,-0.0385,-0.0366,-0.0319,-0.0281,-0.0232,-0.0207,-0.0174,-0.0167,-0.0161,-0.021,-0.0242,-0.0252,0,0,0,0,0,-0.0221,-0.0235,-0.0257,-0.0296,-0.0323,-0.0352,-0.042,-0.0454,-0.046,-0.042,-0.0413,-0.0374,-0.0322,-0.032,-0.0271,-0.0316,-0.0212,-0.0264,-0.0171,-0.0143,-0.0137,-0.0192,0,0,0,0,0,0,-0.0248,-0.027,-0.0256,-0.0258,-0.026,-0.0329,-0.0355,-0.0386,-0.0365,-0.0358,-0.0325,-0.0353,-0.0299,-0.0313,-0.0254,-0.0254,-0.0191,-0.0255,-0.0255,-0.0147,-0.0141,-0.0136,-0.0191,0,0,0,0,0]}]]